Regional Weather Roundup
Issued by NWS Albany, NY

Home | Current Version | Previous Version | Text Only | Print | Product List | Glossary On
Versions: 1 2 3 4 5 6 7 8 9 10 11 12 13 14 15 16 17 18 19 20 21 22 23 24 25 26 27 28 29 30 31 32 33 34 35 36 37 38 39 40 41 42 43 44 45 46 47 48 49 50
000
ASUS41 KALY 060710
RWRALY

NEW YORK STATE HOURLY WEATHER ROUNDUP
NATIONAL WEATHER SERVICE ALBANY NY
300 AM EDT MON JUL 06 2015

NOTE: "FAIR" INDICATES FEW OR NO CLOUDS BELOW 12,000 FEET WITH NO
SIGNIFICANT WEATHER AND/OR NO OBSTRUCTIONS TO VISIBILITY.

NYZ032-033-038>043-046>054-057>066-NYZ062>081-060800-
EAST


CITY           SKY/WX    TMP DP  RH WIND       PRES   REMARKS
ALBANY         MOCLDY    60  56  86 CALM      30.15R
GLENS FALLS    CLEAR     60  57  89 CALM      30.15R
POUGHKEEPSIE   PTCLDY    62  59  90 N3        30.14S
MONTGOMERY     PTCLDY    61  60  97 S3        30.14S FOG
WHITE PLAINS   PTCLDY    66  64  93 CALM      30.15S FOG
ISLIP          MOCLDY    68  65  90 CALM      30.14S
NEW YORK CITY  MOCLDY    74  66  76 S5        30.13S
CENTRAL PARK   MOCLDY    74  65  73 CALM      30.17S
$$

NYZ005>009-017-018-044>046-055-056-060800-
CENTRAL


CITY           SKY/WX    TMP DP  RH WIND       PRES   REMARKS
FULTON         PTCLDY    59  57  93 CALM      30.13S
SYRACUSE       MOCLDY    61  58  90 E5        30.13R
ROME           PTCLDY    57  55  93 SE5       30.16R
ELMIRA         CLOUDY    58  58 100 CALM      30.15S FOG
BINGHAMTON     MOCLDY    61  56  83 SE3       30.18R
MONTICELLO     MOCLDY    57  55  94 CALM      30.20S
$$

NYZ026>034-041>043-060800-
NORTH


CITY           SKY/WX    TMP DP  RH WIND       PRES   REMARKS
WATERTOWN      CLEAR     54  52  93 CALM      30.13R FOG
FORT DRUM      NOT AVBL
MASSENA        CLEAR     59  56  89 CALM      30.12S
SARANAC LAKE   FOG       47  46  97 CALM      30.18R VSB 1/4
PLATTSBURGH    CLEAR     57  56  96 S3        30.12S
$$

NYZ001>004-010>016-019>021-060800-
WEST


CITY           SKY/WX    TMP DP  RH WIND       PRES   REMARKS
NIAGARA FALLS  PTCLDY    63  58  83 CALM      30.10R
BUFFALO        MOCLDY    66  59  78 SE6       30.11S
DUNKIRK        MOCLDY    67  59  75 SE7       30.10S
JAMESTOWN      MOCLDY    64  55  72 E5        30.15S
WELLSVILLE     MOCLDY    62  57  83 SE3       30.19S
ROCHESTER      MOCLDY    65  62  90 CALM      30.12S
PENN YAN       CLOUDY    64  61  90 S5        30.14S
$$

             KEY
       WCI = WIND CHILL INDEX
       VSB = VISIBILITY
       HX  = HEAT INDEX
$$


USA.gov is the U.S. government's official web portal to all federal, state and local government web resources and services.